Location: Zagreb
(45.8000°N, 16.0000°E)
Time: 03:52:49
(UTC+01:00)

Transit 2A - Visible Passes

Search period start: 16 January 2021 00:00
Search period end: 26 January 2021 00:00
Orbit: 598 x 961 km, 66.7° (Epoch: 15 January)

Date Brightness Start Highest point End Pass type
(mag) Time Alt. Az. Time Alt. Az. Time Alt. Az.
16 Jan 8.3 04:36:07 10° SSE 04:40:53 25° ESE 04:45:20 10° ENE visible
16 Jan 6.2 06:17:55 10° SW 06:23:48 61° NW 06:29:08 10° NNE visible
17 Jan 8.7 04:03:06 10° SSE 04:06:54 18° ESE 04:10:31 10° ENE visible
17 Jan 6.1 05:43:37 10° SW 05:49:36 83° NW 05:55:01 10° NNE visible
18 Jan 9.0 03:30:53 10° SE 03:32:58 12° ESE 03:35:01 10° E visible
18 Jan 6.3 05:09:40 11° SSW 05:15:25 73° ESE 05:20:50 10° NE visible
18 Jan 7.2 06:54:25 10° W 06:59:04 25° NW 07:03:25 10° NNE visible
19 Jan 6.9 04:38:51 32° S 04:41:18 52° ESE 04:46:34 10° NE visible
19 Jan 6.8 06:19:34 10° WSW 06:24:42 32° NW 06:29:26 10° NNE visible
20 Jan 7.4 04:07:08 37° ESE 04:07:12 37° ESE 04:12:12 10° NE visible
20 Jan 6.5 05:47:42 26° WSW 05:50:23 42° NW 05:55:26 10° NNE visible
21 Jan 8.3 03:34:58 22° E 03:34:58 22° E 03:37:41 10° NE visible
21 Jan 6.1 05:15:31 54° W 05:16:07 57° NW 05:21:22 10° NNE visible
21 Jan 7.7 06:57:19 10° WNW 07:00:21 15° NNW 07:03:15 10° N visible
22 Jan 9.0 03:02:31 11° ENE 03:02:31 11° ENE 03:02:56 10° ENE visible
22 Jan 6.4 04:43:02 57° NNE 04:43:02 57° NNE 04:47:15 10° NNE visible
22 Jan 7.5 06:23:34 15° WNW 06:25:51 18° NW 06:29:28 10° N visible
23 Jan 7.5 04:10:22 32° NE 04:10:22 32° NE 04:13:05 10° NE visible
23 Jan 7.2 05:50:53 23° NW 05:51:25 23° NW 05:55:35 10° NNE visible
24 Jan 8.4 03:37:33 18° NE 03:37:33 18° NE 03:38:50 10° NE visible
24 Jan 7.1 05:18:03 28° NNW 05:18:03 28° NNW 05:21:38 10° NNE visible
25 Jan 7.5 04:45:08 26° N 04:45:08 26° N 04:47:38 10° NNE visible
25 Jan 8.0 06:25:45 10° NW 06:27:17 11° NNW 06:28:48 10° N visible
